Location: Unspecified
(0.0000°N, 0.0000°E)
Time: 06:58:10
(UTC+00:00)

Vanguard 1 Rocket - Pass Details

Date: 25 November 2019
Orbit: 650 x 4226 km, 34.3° (Epoch: 11 December)

Event Time Altitude Azimuth Distance (km) Brightness Sun altitude
Rises 06:50:17 0° 345° (NNW) 3,395 10.0 14.8°
Reaches altitude 10° 06:53:41 10° 10° (N) 2,818 9.9 15.6°
Maximum altitude 06:57:31 15° 45° (NE) 2,897 10.4 16.5°
Drops below altitude 10° 07:02:33 10° 77° (ENE) 3,931 11.7 17.7°
Sets 07:09:00 0° 96° (E) 5,756 12.9 19.2°
